Date / Time,GWC,VWC,Suction
27/08/2019 12:07,29.48,40.95,0.03
27/08/2019 12:08,29.48,40.94,0.05
27/08/2019 12:09,29.48,40.94,0.06
27/08/2019 12:10,29.48,40.94,0.08
27/08/2019 12:11,29.48,40.94,0.09
27/08/2019 12:12,29.47,40.93,0.1
27/08/2019 12:13,29.47,40.93,0.11
27/08/2019 12:14,29.47,40.92,0.12
27/08/2019 12:15,29.46,40.92,0.13
27/08/2019 12:16,29.46,40.91,0.14
27/08/2019 12:17,29.45,40.9,0.16
27/08/2019 12:18,29.45,40.9,0.16
27/08/2019 12:19,29.45,40.9,0.17
27/08/2019 12:20,29.44,40.89,0.19
27/08/2019 12:21,29.44,40.88,0.2
27/08/2019 12:22,29.44,40.88,0.21
27/08/2019 12:23,29.43,40.88,0.22
27/08/2019 12:24,29.43,40.88,0.23
27/08/2019 12:25,29.43,40.87,0.24
27/08/2019 12:26,29.43,40.87,0.25
27/08/2019 12:27,29.43,40.87,0.26
27/08/2019 12:29,29.42,40.86,0.27
27/08/2019 12:30,29.42,40.86,0.27
27/08/2019 12:31,29.42,40.86,0.29
27/08/2019 12:32,29.42,40.85,0.3
27/08/2019 12:33,29.41,40.85,0.31
27/08/2019 12:34,29.41,40.84,0.32
27/08/2019 12:35,29.41,40.84,0.33
27/08/2019 12:36,29.4,40.84,0.34
27/08/2019 12:37,29.4,40.84,0.35
27/08/2019 12:38,29.4,40.83,0.36
27/08/2019 12:39,29.4,40.83,0.37
27/08/2019 12:40,29.4,40.82,0.38
27/08/2019 12:41,29.39,40.82,0.39
27/08/2019 12:51,29.37,40.79,0.49
27/08/2019 13:01,29.34,40.75,0.61
27/08/2019 13:11,29.32,40.72,0.72
27/08/2019 13:21,29.3,40.69,0.83
27/08/2019 13:31,29.28,40.66,0.96
27/08/2019 13:41,29.25,40.63,1.08
27/08/2019 13:51,29.23,40.6,1.22
27/08/2019 14:01,29.21,40.57,1.34
27/08/2019 14:11,29.19,40.54,1.47
27/08/2019 14:21,29.17,40.51,1.59
27/08/2019 14:31,29.15,40.48,1.72
27/08/2019 14:41,29.13,40.46,1.83
27/08/2019 14:52,29.11,40.43,1.96
27/08/2019 15:02,29.09,40.4,2.06
27/08/2019 15:12,29.07,40.37,2.17
27/08/2019 15:22,29.05,40.35,2.27
27/08/2019 15:32,29.03,40.32,2.37
27/08/2019 15:42,29.01,40.29,2.46
27/08/2019 15:52,28.99,40.26,2.56
27/08/2019 16:02,28.97,40.23,2.65
27/08/2019 16:12,28.95,40.2,2.71
27/08/2019 16:22,28.93,40.17,2.78
27/08/2019 16:32,28.91,40.15,2.85
27/08/2019 16:42,28.89,40.12,2.93
27/08/2019 16:52,28.87,40.09,2.98
27/08/2019 17:02,28.84,40.06,3.04
27/08/2019 17:12,28.82,40.02,3.11
27/08/2019 17:22,28.79,39.99,3.04
27/08/2019 17:32,28.77,39.95,3.08
27/08/2019 17:42,28.74,39.92,3.12
27/08/2019 17:52,28.72,39.89,3.13
27/08/2019 18:02,28.7,39.86,3.09
27/08/2019 18:12,28.69,39.84,3.06
27/08/2019 18:22,28.67,39.82,2.94
27/08/2019 18:32,28.65,39.8,2.96
27/08/2019 18:43,28.64,39.77,2.98
27/08/2019 18:53,28.62,39.75,3.02
27/08/2019 19:03,28.6,39.72,3.04
27/08/2019 19:13,28.59,39.7,2.99
27/08/2019 19:23,28.57,39.68,3.03
27/08/2019 19:33,28.56,39.67,3.06
27/08/2019 19:43,28.55,39.64,2.59
27/08/2019 19:53,28.53,39.62,2.03
27/08/2019 20:03,28.51,39.6,2.1
27/08/2019 20:13,28.5,39.58,2.17
27/08/2019 20:23,28.48,39.56,2.24
27/08/2019 20:33,28.47,39.54,2.3
27/08/2019 20:43,28.45,39.52,2.36
27/08/2019 20:53,28.44,39.5,2.42
27/08/2019 21:03,28.42,39.48,2.48
27/08/2019 21:13,28.41,39.46,2.49
27/08/2019 21:23,28.4,39.44,2.54
27/08/2019 21:33,28.38,39.42,2.57
27/08/2019 21:43,28.37,39.4,2.61
27/08/2019 21:53,28.35,39.38,2.62
27/08/2019 22:03,28.34,39.36,2.62
27/08/2019 22:13,28.32,39.34,2.65
27/08/2019 22:23,28.31,39.32,2.67
27/08/2019 22:33,28.29,39.3,2.68
27/08/2019 22:43,28.28,39.28,2.69
27/08/2019 22:53,28.27,39.26,2.7
27/08/2019 23:03,28.25,39.24,2.72
27/08/2019 23:13,28.24,39.22,2.74
27/08/2019 23:23,28.22,39.2,2.75
27/08/2019 23:33,28.21,39.17,2.74
27/08/2019 23:43,28.19,39.16,2.76
27/08/2019 23:53,28.18,39.14,2.77
28/08/2019 00:03,28.17,39.12,2.78
28/08/2019 00:13,28.15,39.1,2.78
28/08/2019 00:23,28.14,39.08,2.78
28/08/2019 00:33,28.13,39.06,2.79
28/08/2019 00:43,28.12,39.05,2.75
28/08/2019 00:54,28.1,39.03,2.79
28/08/2019 01:04,28.09,39.01,2.8
28/08/2019 01:14,28.07,38.99,2.82
28/08/2019 01:24,28.06,38.97,2.82
28/08/2019 01:34,28.04,38.95,2.83
28/08/2019 01:44,28.03,38.93,2.82
28/08/2019 01:54,28.02,38.91,2.84
28/08/2019 02:04,28,38.89,2.85
28/08/2019 02:14,27.99,38.87,2.86
28/08/2019 02:24,27.97,38.85,2.85
28/08/2019 02:34,27.96,38.83,2.86
28/08/2019 02:44,27.94,38.81,2.86
28/08/2019 02:54,27.93,38.79,2.86
28/08/2019 03:04,27.91,38.77,2.84
28/08/2019 03:14,27.9,38.75,2.87
28/08/2019 03:24,27.89,38.73,2.88
28/08/2019 03:34,27.87,38.71,2.88
28/08/2019 03:44,27.86,38.69,2.89
28/08/2019 03:54,27.85,38.67,2.9
28/08/2019 04:04,27.83,38.65,2.9
28/08/2019 04:14,27.82,38.64,2.91
28/08/2019 04:24,27.81,38.62,2.91
28/08/2019 04:34,27.79,38.6,2.91
28/08/2019 04:44,27.78,38.58,2.89
28/08/2019 04:54,27.76,38.56,2.91
28/08/2019 05:04,27.75,38.54,2.92
28/08/2019 05:15,27.73,38.52,2.92
28/08/2019 05:25,27.72,38.5,2.93
28/08/2019 05:35,27.7,38.48,2.93
28/08/2019 05:45,27.69,38.46,2.93
28/08/2019 05:55,27.68,38.44,2.93
28/08/2019 06:05,27.66,38.42,2.94
28/08/2019 06:15,27.64,38.39,2.94
28/08/2019 06:25,27.63,38.37,2.95
28/08/2019 06:35,27.62,38.35,2.95
28/08/2019 06:45,27.6,38.33,2.95
28/08/2019 06:55,27.59,38.31,2.94
28/08/2019 07:05,27.57,38.29,2.95
28/08/2019 07:15,27.56,38.28,2.96
28/08/2019 07:25,27.54,38.25,2.95
28/08/2019 07:35,27.53,38.23,2.95
28/08/2019 07:45,27.51,38.21,2.93
28/08/2019 07:55,27.5,38.19,2.95
28/08/2019 08:05,27.49,38.17,2.96
28/08/2019 08:15,27.47,38.15,2.96
28/08/2019 08:25,27.46,38.13,2.97
28/08/2019 08:35,27.43,38.09,2.97
28/08/2019 08:45,27.39,38.04,2.98
28/08/2019 08:55,27.36,38,2.99
28/08/2019 09:05,27.33,37.95,3.01
28/08/2019 09:15,27.31,37.92,3.02
28/08/2019 09:25,27.29,37.9,3.02
28/08/2019 09:35,27.27,37.87,3.03
28/08/2019 09:45,27.24,37.83,3.03
28/08/2019 09:55,27.21,37.79,3.04
28/08/2019 10:05,27.19,37.76,3.04
28/08/2019 10:15,27.16,37.72,3.01
28/08/2019 10:26,27.14,37.69,3.04
28/08/2019 10:36,27.12,37.66,3.04
28/08/2019 10:46,27.1,37.64,3.05
28/08/2019 10:56,27.07,37.6,3.06
28/08/2019 11:06,27.05,37.57,3.06
28/08/2019 11:16,27.02,37.53,3.05
28/08/2019 11:26,27,37.5,3.02
28/08/2019 11:36,26.98,37.46,3.05
28/08/2019 11:46,26.95,37.43,3.03
28/08/2019 11:56,26.92,37.39,3.06
28/08/2019 12:06,26.91,37.37,3.06
28/08/2019 12:16,26.89,37.34,3.07
28/08/2019 12:26,26.88,37.32,3.06
28/08/2019 12:36,26.85,37.3,3.06
28/08/2019 12:46,26.84,37.28,3.07
28/08/2019 12:56,26.82,37.25,3.06
28/08/2019 13:06,26.8,37.22,3.07
28/08/2019 13:16,26.79,37.2,3.07
28/08/2019 13:26,26.77,37.18,3.07
28/08/2019 13:36,26.75,37.15,3.07
28/08/2019 13:46,26.73,37.13,3.07
28/08/2019 13:56,26.72,37.1,3.07
28/08/2019 14:06,26.7,37.08,3.07
28/08/2019 14:16,26.69,37.06,3.07
28/08/2019 14:27,26.67,37.04,3.07
28/08/2019 14:37,26.65,37.02,3.07
28/08/2019 14:47,26.64,36.99,3.08
28/08/2019 14:57,26.62,36.97,3.07
28/08/2019 15:07,26.6,36.94,3.08
28/08/2019 15:17,26.59,36.92,3.08
28/08/2019 15:27,26.57,36.9,3.08
28/08/2019 15:37,26.55,36.87,3.08
28/08/2019 15:47,26.53,36.85,3.08
28/08/2019 15:57,26.51,36.82,3.07
28/08/2019 16:07,26.49,36.8,3.08
28/08/2019 16:17,26.48,36.77,3.08
28/08/2019 16:27,26.46,36.75,3.09
28/08/2019 16:37,26.44,36.72,3.09
28/08/2019 16:47,26.42,36.7,3.09
28/08/2019 16:57,26.41,36.67,3.09
28/08/2019 17:07,26.39,36.64,3.09
28/08/2019 17:17,26.37,36.62,3.09
28/08/2019 17:27,26.35,36.59,3.09
28/08/2019 17:37,26.32,36.56,3.1
28/08/2019 17:47,26.3,36.52,3.1
28/08/2019 17:57,26.27,36.49,3.11
28/08/2019 18:07,26.25,36.46,3.11
28/08/2019 18:17,26.24,36.44,3.11
28/08/2019 18:27,26.22,36.41,3.11
28/08/2019 18:37,26.2,36.38,3.09
28/08/2019 18:47,26.18,36.36,3.11
28/08/2019 18:57,26.16,36.34,3.11
28/08/2019 19:07,26.15,36.31,3.1
28/08/2019 19:17,26.13,36.29,3.11
28/08/2019 19:27,26.11,36.26,3.11
28/08/2019 19:37,26.09,36.24,3.11
28/08/2019 19:48,26.07,36.21,3.08
28/08/2019 19:58,26.06,36.19,3.1
28/08/2019 20:08,26.04,36.17,3.11
28/08/2019 20:18,26.03,36.14,3.11
28/08/2019 20:28,26.01,36.12,3.11
28/08/2019 20:38,25.99,36.1,3.11
28/08/2019 20:48,25.97,36.07,3.12
28/08/2019 20:58,25.96,36.05,3.09
28/08/2019 21:08,25.94,36.02,3.11
28/08/2019 21:18,25.92,36,3.11
28/08/2019 21:28,25.9,35.98,3.11
28/08/2019 21:38,25.89,35.95,3.12
28/08/2019 21:48,25.87,35.92,3.12
28/08/2019 21:58,25.85,35.9,3.12
28/08/2019 22:08,25.83,35.88,3.12
28/08/2019 22:18,25.82,35.85,3.12
28/08/2019 22:28,25.8,35.83,3.12
28/08/2019 22:38,25.78,35.8,3.13
28/08/2019 22:48,25.76,35.78,3.13
28/08/2019 22:58,25.75,35.76,3.11
28/08/2019 23:08,25.73,35.73,3.12
28/08/2019 23:18,25.71,35.71,3.13
28/08/2019 23:28,25.69,35.68,3.13
28/08/2019 23:38,25.68,35.66,3.13
28/08/2019 23:48,25.66,35.64,3.13
28/08/2019 23:58,25.64,35.61,3.13
29/08/2019 00:08,25.63,35.59,3.13
29/08/2019 00:18,25.61,35.56,3.14
29/08/2019 00:28,25.59,35.54,3.14
29/08/2019 00:38,25.57,35.51,3.14
29/08/2019 00:48,25.55,35.49,3.14
29/08/2019 00:58,25.54,35.46,3.14
29/08/2019 01:08,25.52,35.44,3.14
29/08/2019 01:19,25.5,35.42,3.15
29/08/2019 01:29,25.48,35.39,3.15
29/08/2019 01:39,25.46,35.36,3.15
29/08/2019 01:49,25.45,35.34,3.15
29/08/2019 01:59,25.43,35.31,3.15
29/08/2019 02:09,25.41,35.29,3.15
29/08/2019 02:19,25.39,35.26,3.16
29/08/2019 02:29,25.37,35.24,3.16
29/08/2019 02:39,25.36,35.22,3.16
29/08/2019 02:49,25.34,35.19,3.16
29/08/2019 02:59,25.32,35.16,3.16
29/08/2019 03:09,25.3,35.14,3.17
29/08/2019 03:19,25.28,35.11,3.17
29/08/2019 03:29,25.26,35.09,3.17
29/08/2019 03:39,25.24,35.06,3.17
29/08/2019 03:49,25.23,35.04,3.17
29/08/2019 03:59,25.21,35.01,3.18
29/08/2019 04:09,25.19,34.99,3.18
29/08/2019 04:19,25.17,34.96,3.18
29/08/2019 04:29,25.16,34.94,3.18
29/08/2019 04:39,25.14,34.91,3.18
29/08/2019 04:49,25.12,34.89,3.18
29/08/2019 04:59,25.1,34.86,3.19
29/08/2019 05:09,25.08,34.84,3.19
29/08/2019 05:19,25.07,34.81,3.19
29/08/2019 05:29,25.05,34.79,3.19
29/08/2019 05:39,25.03,34.76,3.19
29/08/2019 05:49,25.01,34.74,3.19
29/08/2019 05:59,24.99,34.71,3.2
29/08/2019 06:09,24.98,34.69,3.2
29/08/2019 06:19,24.96,34.66,3.2
29/08/2019 06:29,24.94,34.64,3.2
29/08/2019 06:40,24.92,34.61,3.2
29/08/2019 06:50,24.9,34.59,3.2
29/08/2019 07:00,24.89,34.56,3.21
29/08/2019 07:10,24.87,34.54,3.21
29/08/2019 07:20,24.85,34.52,3.21
29/08/2019 07:30,24.83,34.49,3.21
29/08/2019 07:40,24.82,34.46,3.21
29/08/2019 07:50,24.8,34.44,3.21
29/08/2019 08:00,24.78,34.41,3.21
29/08/2019 08:10,24.76,34.38,3.22
29/08/2019 08:20,24.74,34.36,3.22
29/08/2019 08:30,24.73,34.34,3.22
29/08/2019 08:40,24.71,34.31,3.22
29/08/2019 08:50,24.69,34.29,3.22
29/08/2019 09:00,24.67,34.27,3.22
29/08/2019 09:10,24.65,34.24,3.22
29/08/2019 09:20,24.63,34.21,3.23
29/08/2019 09:30,24.61,34.18,3.23
29/08/2019 09:40,24.59,34.16,3.23
29/08/2019 09:50,24.57,34.13,3.23
29/08/2019 10:00,24.55,34.1,3.23
29/08/2019 10:10,24.53,34.07,3.24
29/08/2019 10:20,24.51,34.04,3.24
29/08/2019 10:30,24.49,34.01,3.24
29/08/2019 10:40,24.47,33.98,3.24
29/08/2019 10:50,24.45,33.95,3.25
29/08/2019 11:00,24.43,33.93,3.25
29/08/2019 11:11,24.41,33.9,3.25
29/08/2019 11:21,24.39,33.87,3.25
29/08/2019 11:31,24.37,33.84,3.25
29/08/2019 11:41,24.35,33.82,3.25
29/08/2019 11:51,24.33,33.79,3.25
29/08/2019 12:01,24.31,33.76,3.26
29/08/2019 12:11,24.29,33.73,3.26
29/08/2019 12:21,24.27,33.7,3.26
29/08/2019 12:31,24.24,33.66,3.26
29/08/2019 12:41,24.22,33.64,3.27
29/08/2019 12:51,24.2,33.6,3.27
29/08/2019 13:01,24.17,33.57,3.27
29/08/2019 13:11,24.15,33.54,3.28
29/08/2019 13:21,24.13,33.51,3.28
29/08/2019 13:31,24.1,33.48,3.28
29/08/2019 13:41,24.08,33.44,3.28
29/08/2019 13:51,24.06,33.41,3.29
29/08/2019 14:01,24.03,33.38,3.29
29/08/2019 14:11,24.01,33.35,3.29
29/08/2019 14:21,23.99,33.32,3.29
29/08/2019 14:31,23.97,33.3,3.29
29/08/2019 14:41,23.95,33.26,3.29
29/08/2019 14:51,23.93,33.24,3.29
29/08/2019 15:01,23.91,33.21,3.3
29/08/2019 15:11,23.89,33.18,3.3
29/08/2019 15:21,23.88,33.16,3.3
29/08/2019 15:31,23.86,33.14,3.3
29/08/2019 15:41,23.84,33.11,3.3
29/08/2019 15:52,23.82,33.08,3.3
29/08/2019 16:02,23.8,33.06,3.3
29/08/2019 16:12,23.78,33.03,3.3
29/08/2019 16:22,23.76,33,3.3
29/08/2019 16:32,23.74,32.96,3.3
29/08/2019 16:42,23.72,32.94,3.3
29/08/2019 16:52,23.7,32.92,3.31
29/08/2019 17:02,23.68,32.89,3.3
29/08/2019 17:12,23.67,32.87,3.3
29/08/2019 17:22,23.65,32.85,3.31
29/08/2019 17:32,23.63,32.82,3.31
29/08/2019 17:42,23.62,32.8,3.31
29/08/2019 17:52,23.6,32.78,3.31
29/08/2019 18:02,23.58,32.75,3.31
29/08/2019 18:12,23.57,32.73,3.31
29/08/2019 18:22,23.55,32.71,3.31
29/08/2019 18:32,23.54,32.69,3.31
29/08/2019 18:42,23.52,32.67,3.31
29/08/2019 18:52,23.51,32.65,3.31
29/08/2019 19:02,23.49,32.63,3.31
29/08/2019 19:12,23.48,32.61,3.31
29/08/2019 19:22,23.46,32.59,3.31
29/08/2019 19:33,23.45,32.56,3.31
29/08/2019 19:43,23.43,32.54,3.31
29/08/2019 19:53,23.42,32.52,3.31
29/08/2019 20:03,23.4,32.5,3.31
29/08/2019 20:13,23.39,32.48,3.31
29/08/2019 20:23,23.37,32.46,3.32
29/08/2019 20:33,23.36,32.44,3.31
29/08/2019 20:43,23.34,32.42,3.32
29/08/2019 20:53,23.32,32.39,3.32
29/08/2019 21:03,23.31,32.37,3.32
29/08/2019 21:13,23.29,32.34,3.32
29/08/2019 21:23,23.27,32.32,3.32
29/08/2019 21:33,23.25,32.3,3.32
29/08/2019 21:43,23.24,32.28,3.32
29/08/2019 21:53,23.22,32.25,3.33
29/08/2019 22:03,23.21,32.23,3.33
29/08/2019 22:13,23.19,32.21,3.33
29/08/2019 22:23,23.18,32.19,3.33
29/08/2019 22:33,23.17,32.17,3.33
29/08/2019 22:43,23.15,32.15,3.33
29/08/2019 22:53,23.13,32.13,3.33
29/08/2019 23:03,23.12,32.1,3.33
29/08/2019 23:13,23.1,32.08,3.33
29/08/2019 23:23,23.08,32.06,3.33
29/08/2019 23:33,23.06,32.03,3.33
29/08/2019 23:43,23.05,32.01,3.33
29/08/2019 23:53,23.03,31.99,3.33
30/08/2019 00:03,23.02,31.97,3.33
30/08/2019 00:13,23,31.94,3.34
30/08/2019 00:23,22.99,31.92,3.34
30/08/2019 00:33,22.97,31.9,3.34
30/08/2019 00:44,22.96,31.88,3.34
30/08/2019 00:54,22.94,31.86,3.34
30/08/2019 01:04,22.93,31.84,3.34
30/08/2019 01:14,22.91,31.82,3.34
30/08/2019 01:24,22.89,31.8,3.34
30/08/2019 01:34,22.88,31.77,3.34
30/08/2019 01:44,22.86,31.75,3.34
30/08/2019 01:54,22.85,31.73,3.35
30/08/2019 02:04,22.83,31.7,3.35
30/08/2019 02:14,22.81,31.68,3.35
30/08/2019 02:24,22.79,31.66,3.35
30/08/2019 02:34,22.78,31.64,3.35
30/08/2019 02:44,22.77,31.62,3.35
30/08/2019 02:54,22.75,31.6,3.35
30/08/2019 03:04,22.73,31.57,3.35
30/08/2019 03:14,22.72,31.55,3.36
30/08/2019 03:24,22.7,31.53,3.36
30/08/2019 03:34,22.69,31.51,3.36
30/08/2019 03:44,22.67,31.48,3.36
30/08/2019 03:54,22.66,31.46,3.36
30/08/2019 04:04,22.64,31.44,3.36
30/08/2019 04:14,22.62,31.42,3.36
30/08/2019 04:24,22.61,31.4,3.37
30/08/2019 04:34,22.59,31.37,3.36
30/08/2019 04:44,22.57,31.35,3.37
30/08/2019 04:54,22.56,31.33,3.37
30/08/2019 05:04,22.54,31.3,3.37
30/08/2019 05:14,22.52,31.28,3.37
30/08/2019 05:24,22.5,31.25,3.37
30/08/2019 05:35,22.49,31.23,3.38
30/08/2019 05:45,22.47,31.2,3.38
30/08/2019 05:55,22.45,31.18,3.38
30/08/2019 06:05,22.43,31.15,3.38
30/08/2019 06:15,22.42,31.13,3.38
30/08/2019 06:25,22.4,31.11,3.38
30/08/2019 06:35,22.38,31.09,3.38
30/08/2019 06:45,22.37,31.06,3.38
30/08/2019 06:55,22.35,31.04,3.38
30/08/2019 07:05,22.34,31.02,3.39
30/08/2019 07:15,22.32,31,3.39
30/08/2019 07:25,22.31,30.98,3.39
30/08/2019 07:35,22.29,30.96,3.39
30/08/2019 07:45,22.28,30.94,3.39
30/08/2019 07:55,22.26,30.92,3.39
30/08/2019 08:05,22.24,30.89,3.39
30/08/2019 08:15,22.22,30.86,3.39
30/08/2019 08:25,22.21,30.84,3.39
30/08/2019 08:35,22.19,30.81,3.4
30/08/2019 08:45,22.17,30.79,3.4
30/08/2019 08:55,22.15,30.76,3.4
30/08/2019 09:05,22.13,30.74,3.4
30/08/2019 09:15,22.11,30.71,3.4
30/08/2019 09:25,22.1,30.69,3.41
30/08/2019 09:35,22.08,30.66,3.41
30/08/2019 09:45,22.05,30.63,3.41
30/08/2019 09:56,22.04,30.6,3.41
30/08/2019 10:06,22.01,30.57,3.41
30/08/2019 10:16,21.99,30.54,3.42
30/08/2019 10:26,21.97,30.51,3.42
30/08/2019 10:36,21.95,30.48,3.42
30/08/2019 10:46,21.92,30.45,3.42
30/08/2019 10:56,21.9,30.42,3.42
30/08/2019 11:06,21.88,30.38,3.43
30/08/2019 11:16,21.85,30.34,3.43
30/08/2019 11:26,21.83,30.32,3.44
30/08/2019 11:36,21.81,30.29,3.44
30/08/2019 11:46,21.79,30.26,3.44
30/08/2019 11:56,21.77,30.24,3.44
30/08/2019 12:06,21.76,30.22,3.44
30/08/2019 12:16,21.74,30.19,3.44
30/08/2019 12:26,21.72,30.16,3.44
30/08/2019 12:36,21.7,30.14,3.44
30/08/2019 12:46,21.68,30.11,3.44
30/08/2019 12:56,21.66,30.08,3.44
30/08/2019 13:06,21.65,30.06,3.45
30/08/2019 13:16,21.63,30.04,3.45
30/08/2019 13:26,21.61,30.02,3.45
30/08/2019 13:36,21.6,29.99,3.45
30/08/2019 13:46,21.58,29.96,3.45
30/08/2019 13:56,21.56,29.94,3.45
30/08/2019 14:06,21.54,29.91,3.45
30/08/2019 14:16,21.52,29.89,3.46
30/08/2019 14:26,21.5,29.86,3.46
30/08/2019 14:36,21.48,29.84,3.46
30/08/2019 14:46,21.47,29.81,3.46
30/08/2019 14:57,21.45,29.79,3.46
30/08/2019 15:07,21.43,29.76,3.46
30/08/2019 15:17,21.41,29.74,3.46
30/08/2019 15:27,21.39,29.71,3.47
30/08/2019 15:37,21.37,29.68,3.47
30/08/2019 15:47,21.35,29.66,3.47
30/08/2019 15:57,21.33,29.63,3.47
30/08/2019 16:07,21.32,29.6,3.47
30/08/2019 16:17,21.3,29.58,3.47
30/08/2019 16:27,21.28,29.55,3.47
30/08/2019 16:37,21.26,29.52,3.47
30/08/2019 16:47,21.24,29.5,3.48
30/08/2019 16:57,21.22,29.48,3.48
30/08/2019 17:07,21.2,29.45,3.48
30/08/2019 17:17,21.19,29.42,3.48
30/08/2019 17:27,21.17,29.4,3.48
30/08/2019 17:37,21.15,29.37,3.48
30/08/2019 17:47,21.13,29.35,3.48
30/08/2019 17:57,21.12,29.33,3.48
30/08/2019 18:07,21.1,29.3,3.48
30/08/2019 18:17,21.09,29.28,3.49
30/08/2019 18:27,21.07,29.26,3.49
30/08/2019 18:37,21.05,29.24,3.49
30/08/2019 18:47,21.04,29.22,3.49
30/08/2019 18:57,21.02,29.19,3.49
30/08/2019 19:07,21.01,29.17,3.49
30/08/2019 19:17,20.99,29.15,3.49
30/08/2019 19:27,20.97,29.12,3.49
30/08/2019 19:37,20.95,29.1,3.49
30/08/2019 19:48,20.94,29.08,3.49
30/08/2019 19:58,20.92,29.06,3.49
30/08/2019 20:08,20.9,29.03,3.49
30/08/2019 20:18,20.89,29.01,3.5
30/08/2019 20:28,20.87,28.99,3.5
30/08/2019 20:38,20.85,28.96,3.5
30/08/2019 20:48,20.83,28.93,3.5
30/08/2019 20:58,20.82,28.91,3.5
30/08/2019 21:08,20.8,28.89,3.5
30/08/2019 21:18,20.79,28.87,3.5
30/08/2019 21:28,20.77,28.85,3.5
30/08/2019 21:38,20.76,28.83,3.5
30/08/2019 21:48,20.74,28.8,3.5
30/08/2019 21:58,20.73,28.79,3.5
30/08/2019 22:08,20.71,28.77,3.5
30/08/2019 22:18,20.7,28.75,3.5
30/08/2019 22:28,20.69,28.73,3.5
30/08/2019 22:38,20.67,28.71,3.5
30/08/2019 22:48,20.66,28.69,3.5
30/08/2019 22:58,20.64,28.67,3.51
30/08/2019 23:08,20.63,28.64,3.51
30/08/2019 23:18,20.61,28.62,3.51
30/08/2019 23:28,20.6,28.6,3.51
30/08/2019 23:38,20.58,28.58,3.51
30/08/2019 23:48,20.57,28.56,3.51
30/08/2019 23:58,20.55,28.54,3.51
31/08/2019 00:09,20.54,28.52,3.51
31/08/2019 00:19,20.52,28.5,3.51
31/08/2019 00:29,20.51,28.48,3.51
31/08/2019 00:39,20.5,28.46,3.51
31/08/2019 00:49,20.48,28.44,3.51
31/08/2019 00:59,20.47,28.42,3.51
31/08/2019 01:09,20.46,28.41,3.51
31/08/2019 01:19,20.44,28.39,3.52
31/08/2019 01:29,20.43,28.37,3.52
31/08/2019 01:39,20.41,28.35,3.51
31/08/2019 01:49,20.4,28.33,3.52
31/08/2019 01:59,20.38,28.31,3.52
31/08/2019 02:09,20.37,28.29,3.52
31/08/2019 02:19,20.35,28.26,3.52
31/08/2019 02:29,20.34,28.24,3.52
31/08/2019 02:39,20.32,28.22,3.52
31/08/2019 02:49,20.31,28.2,3.52
31/08/2019 02:59,20.29,28.18,3.52
31/08/2019 03:09,20.28,28.17,3.53
31/08/2019 03:19,20.27,28.15,3.53
31/08/2019 03:29,20.25,28.13,3.53
31/08/2019 03:39,20.24,28.11,3.53
31/08/2019 03:49,20.22,28.09,3.53
31/08/2019 04:00,20.21,28.07,3.53
31/08/2019 04:10,20.2,28.05,3.53
31/08/2019 04:20,20.18,28.03,3.53
31/08/2019 04:30,20.17,28.01,3.53
31/08/2019 04:40,20.16,27.99,3.53
31/08/2019 04:50,20.14,27.97,3.53
31/08/2019 05:00,20.13,27.95,3.53
31/08/2019 05:10,20.11,27.93,3.53
31/08/2019 05:20,20.1,27.91,3.54
31/08/2019 05:30,20.09,27.9,3.54
31/08/2019 05:40,20.07,27.88,3.54
31/08/2019 05:50,20.06,27.86,3.54
31/08/2019 06:00,20.05,27.84,3.54
31/08/2019 06:10,20.03,27.82,3.54
31/08/2019 06:20,20.02,27.8,3.54
31/08/2019 06:30,20,27.78,3.54
31/08/2019 06:40,19.99,27.76,3.55
31/08/2019 06:50,19.97,27.74,3.55
31/08/2019 07:00,19.96,27.72,3.55
31/08/2019 07:10,19.95,27.7,3.55
31/08/2019 07:20,19.93,27.68,3.55
31/08/2019 07:30,19.92,27.66,3.55
31/08/2019 07:40,19.9,27.64,3.55
31/08/2019 07:50,19.89,27.62,3.55
31/08/2019 08:00,19.87,27.6,3.55
31/08/2019 08:10,19.86,27.58,3.55
31/08/2019 08:20,19.84,27.56,3.55
31/08/2019 08:30,19.83,27.54,3.56
31/08/2019 08:40,19.82,27.52,3.56
31/08/2019 08:50,19.8,27.5,3.56
31/08/2019 09:00,19.79,27.48,3.56
31/08/2019 09:11,19.77,27.46,3.56
31/08/2019 09:21,19.76,27.44,3.56
31/08/2019 09:31,19.74,27.42,3.56
31/08/2019 09:41,19.73,27.4,3.56
31/08/2019 09:51,19.72,27.38,3.56
31/08/2019 10:01,19.71,27.37,3.56
31/08/2019 10:11,19.69,27.34,3.57
31/08/2019 10:21,19.67,27.32,3.56
31/08/2019 10:31,19.66,27.3,3.57
31/08/2019 10:41,19.64,27.28,3.57
31/08/2019 10:51,19.63,27.26,3.57
31/08/2019 11:01,19.61,27.24,3.57
31/08/2019 11:11,19.6,27.22,3.57
31/08/2019 11:21,19.58,27.2,3.57
31/08/2019 11:31,19.57,27.18,3.57
31/08/2019 11:41,19.55,27.15,3.57
31/08/2019 11:51,19.54,27.13,3.58
31/08/2019 12:01,19.52,27.11,3.58
31/08/2019 12:11,19.5,27.08,3.58
31/08/2019 12:21,19.48,27.06,3.58
31/08/2019 12:31,19.46,27.03,3.58
31/08/2019 12:41,19.45,27.01,3.58
31/08/2019 12:51,19.42,26.98,3.59
31/08/2019 13:01,19.41,26.95,3.59
31/08/2019 13:11,19.39,26.93,3.59
31/08/2019 13:21,19.37,26.9,3.59
31/08/2019 13:31,19.35,26.87,3.59
31/08/2019 13:41,19.32,26.84,3.6
31/08/2019 13:52,19.3,26.81,3.6
31/08/2019 14:02,19.28,26.78,3.6
31/08/2019 14:12,19.26,26.75,3.6
31/08/2019 14:22,19.24,26.72,3.61
31/08/2019 14:32,19.22,26.7,3.61
31/08/2019 14:42,19.2,26.67,3.61
31/08/2019 14:52,19.18,26.64,3.61
31/08/2019 15:02,19.16,26.61,3.61
31/08/2019 15:12,19.14,26.59,3.62
31/08/2019 15:22,19.12,26.56,3.62
31/08/2019 15:32,19.1,26.53,3.62
31/08/2019 15:42,19.08,26.5,3.62
31/08/2019 15:52,19.07,26.48,3.62
31/08/2019 16:02,19.05,26.45,3.62
31/08/2019 16:12,19.03,26.42,3.63
31/08/2019 16:22,19,26.39,3.63
31/08/2019 16:32,18.98,26.36,3.63
31/08/2019 16:42,18.96,26.33,3.63
31/08/2019 16:52,18.94,26.3,3.63
31/08/2019 17:02,18.92,26.28,3.64
31/08/2019 17:12,18.9,26.25,3.64
31/08/2019 17:22,18.88,26.22,3.64
31/08/2019 17:32,18.86,26.19,3.64
31/08/2019 17:42,18.84,26.16,3.64
31/08/2019 17:52,18.81,26.13,3.64
31/08/2019 18:02,18.79,26.1,3.65
31/08/2019 18:12,18.77,26.07,3.65
31/08/2019 18:22,18.75,26.04,3.65
31/08/2019 18:33,18.73,26.02,3.65
31/08/2019 18:43,18.71,25.99,3.65
31/08/2019 18:53,18.69,25.96,3.65
31/08/2019 19:03,18.67,25.93,3.65
31/08/2019 19:13,18.65,25.9,3.66
31/08/2019 19:23,18.63,25.88,3.66
31/08/2019 19:33,18.61,25.85,3.66
31/08/2019 19:43,18.59,25.82,3.66
31/08/2019 19:53,18.57,25.79,3.66
31/08/2019 20:03,18.55,25.76,3.66
31/08/2019 20:13,18.53,25.73,3.67
31/08/2019 20:23,18.51,25.7,3.67
31/08/2019 20:33,18.49,25.68,3.67
31/08/2019 20:43,18.46,25.64,3.67
31/08/2019 20:53,18.44,25.62,3.67
31/08/2019 21:03,18.42,25.59,3.68
31/08/2019 21:13,18.4,25.56,3.68
31/08/2019 21:23,18.38,25.53,3.68
31/08/2019 21:33,18.36,25.5,3.68
31/08/2019 21:43,18.34,25.47,3.68
31/08/2019 21:53,18.32,25.44,3.68
31/08/2019 22:03,18.3,25.41,3.69
31/08/2019 22:13,18.27,25.38,3.69
31/08/2019 22:23,18.25,25.34,3.69
31/08/2019 22:33,18.23,25.31,3.69
31/08/2019 22:43,18.2,25.28,3.7
31/08/2019 22:53,18.18,25.24,3.7
31/08/2019 23:03,18.15,25.21,3.7
31/08/2019 23:14,18.13,25.18,3.7
31/08/2019 23:24,18.1,25.14,3.71
31/08/2019 23:34,18.08,25.11,3.71
31/08/2019 23:44,18.06,25.08,3.71
31/08/2019 23:54,18.03,25.04,3.71
01/09/2019 00:04,18.01,25.01,3.72
01/09/2019 00:14,17.99,24.98,3.72
01/09/2019 00:24,17.96,24.95,3.72
01/09/2019 00:34,17.94,24.92,3.72
01/09/2019 00:44,17.92,24.88,3.72
01/09/2019 00:54,17.89,24.85,3.73
01/09/2019 01:04,17.87,24.82,3.73
01/09/2019 01:14,17.84,24.78,3.73
01/09/2019 01:24,17.82,24.75,3.73
01/09/2019 01:34,17.8,24.72,3.74
01/09/2019 01:44,17.77,24.68,3.74
01/09/2019 01:54,17.74,24.64,3.74
01/09/2019 02:04,17.72,24.6,3.74
01/09/2019 02:14,17.69,24.57,3.75
01/09/2019 02:24,17.67,24.54,3.75
01/09/2019 02:34,17.64,24.5,3.75